Location: Staunton
(38.1490°N, 79.0720°W)
Time: 01:29:40
(UTC-05:00)

ISS - Pass Details

Date: 13 January 2018
Orbit: 402 x 407 km, 51.6° (Epoch: 21 January)

Event Time Altitude Azimuth Distance (km) Brightness Sun altitude
Exits shadow 05:44:23 22° 18° (NNE) 933 -2.0 -20.8°
Maximum altitude 05:44:44 23° 28° (NNE) 920 -1.9 -20.7°
Drops below altitude 10° 05:47:25 10° 83° (E) 1,461 0.0 -20.2°
Sets 05:49:46 0° 99° (E) 2,320 1.7 -19.7°
